Location: Rounton
(54.4000°N, 1.3500°W)
Time: 14:39:23
(UTC+00:00)

Transit 2A Rocket - Pass Details

Date: 02 December 2021
Orbit: 584 x 918 km, 66.7° (Epoch: 21 January)

Event Time Altitude Azimuth Distance (km) Brightness Sun altitude
Rises 12:57:14 0° 298° (WNW) 3,523 8.3 12.4°
Reaches altitude 10° 13:00:11 10° 311° (NW) 2,606 7.5 12.3°
Maximum altitude 13:05:16 26° 7° (N) 1,717 6.4 12.1°
Drops below altitude 10° 13:10:21 10° 63° (ENE) 2,604 7.4 11.9°
Sets 13:13:17 0° 76° (ENE) 3,521 8.1 11.7°
